CW6633 Weather Reports


time (UTC)temp
C
wind
direction
speed
KPH
gust
KPH
rain 1hr
cm
rain 24hr
cm
rain mn
cm
humidity
%
barometer
mb
20260505035517 7 0.0 0.0 0.00 0.00 0.00 85 1012.1
20260505034537 7 0.0 0.0 0.00 0.00 0.00 84 1011.9
20260505033517 8 0.0 1.6 0.00 0.00 0.00 83 1012.1
20260505032517 8 135 1.6 6.4 0.00 0.00 0.00 82 1012.2
20260505031517 8 0.0 3.2 0.00 0.00 0.00 80 1011.8
20260505030557 9 0.0 3.2 0.00 0.00 0.00 77 1011.2
20260505025517 9 113 1.6 3.2 0.00 0.00 0.00 74 1010.8
20260505024517 10 113 1.6 4.8 0.00 0.00 0.00 73 1010.9
20260505023518 10 135 1.6 9.7 0.00 0.00 0.00 71 1009.5
20260505022518 10 135 1.6 8.0 0.00 0.00 0.00 69 1009.6
20260505021518 10 135 1.6 6.4 0.00 0.00 0.00 70 1009.5
20260505020517 10 0.0 0.0 0.00 0.00 0.00 69 1008.7
20260505015538 10 0.0 0.0 0.00 0.00 0.00 69 1008.9
20260505014517 10 0.0 0.0 0.00 0.00 0.00 68 1008.8
20260505013557 11 0.0 0.0 0.00 0.00 0.00 67 1008.0
20260505012516 11 0.0 0.0 0.00 0.00 0.00 68 1008.1
20260505011517 11 0.0 1.6 0.00 0.00 0.00 67 1008.1
20260505010516 11 0.0 0.0 0.00 0.00 0.00 67 1008.3
20260505005517 11 0.0 1.6 0.00 0.00 0.00 66 1008.1
20260505004517 11 0.0 0.0 0.00 0.00 0.00 66 1008.3
20260505003517 12 0 1.6 3.2 0.00 0.00 0.00 64 1007.9
20260505002517 12 293 1.6 4.8 0.00 0.00 0.00 59 1008.6
20260505001559 14 0.0 4.8 0.00 0.00 0.00 47 1008.8
20260505000518 14 0.0 3.2 0.00 0.00 0.00 45 1007.6
20260504235518 14 0.0 4.8 0.00 0.00 0.00 44 1007.3
20260504234517 14 113 1.6 6.4 0.00 0.00 0.00 44 1007.2
20260504233516 14 158 1.6 6.4 0.00 0.00 0.00 44 1007.0
20260504232518 15 135 1.6 6.4 0.00 0.00 0.00 43 1007.2
20260504231517 15 135 3.2 12.9 0.00 0.00 0.00 43 1007.2
20260504230516 15 135 1.6 9.7 0.00 0.00 0.00 42 1007.4
20260504225517 16 158 4.8 16.1 0.00 0.00 0.00 41 1007.8
20260504224516 16 135 4.8 12.9 0.00 0.00 0.00 39 1007.6
20260504223538 15 135 3.2 11.3 0.00 0.00 0.00 40 1006.6
20260504222516 15 135 3.2 9.7 0.00 0.00 0.00 40 1006.7
20260504221516 15 135 4.8 12.9 0.00 0.00 0.00 38 1006.5
20260504220516 16 135 4.8 12.9 0.00 0.00 0.00 37 1006.5
20260504215518 16 135 6.4 16.1 0.00 0.00 0.00 35 1006.2
20260504214517 18 135 6.4 14.5 0.00 0.00 0.00 30 1006.6
20260504213516 20 0.0 4.8 0.00 0.00 0.00 27 1006.4
20260504212517 21 0.0 4.8 0.00 0.00 0.00 25 1006.8
20260504211516 21 0.0 3.2 0.00 0.00 0.00 24 1007.3
20260504210516 22 68 1.6 4.8 0.00 0.00 0.00 23 1008.4
20260504205516 22 135 1.6 4.8 0.00 0.00 0.00 25 1008.4
20260504204517 22 0.0 3.2 0.00 0.00 0.00 28 1008.8
20260504203516 20 135 1.6 6.4 0.00 0.00 0.00 30 1008.3
20260504202517 18 135 1.6 6.4 0.00 0.00 0.00 33 1008.2
20260504201516 17 135 1.6 4.8 0.00 0.00 0.00 36 1008.0
20260504200517 16 135 1.6 4.8 0.00 0.00 0.00 36 1008.3
20260504195517 16 113 1.6 6.4 0.00 0.00 0.00 36 1008.2
20260504194517 17 0.0 1.6 0.00 0.00 0.00 36 1008.3
20260504193516 17 0.0 8.0 0.00 0.00 0.00 34 1008.8
20260504192516 17 0.0 3.2 0.00 0.00 0.00 34 1009.2
20260504191516 17 315 1.6 6.4 0.00 0.00 0.00 36 1009.4
20260504190517 17 45 1.6 4.8 0.00 0.00 0.00 34 1009.9
20260504185517 18 270 4.8 12.9 0.00 0.00 0.00 27 1009.9
20260504184516 18 0.0 0.0 0.00 0.00 0.00 24 1009.2
20260504183516 19 0.0 3.2 0.00 0.00 0.00 23 1009.8
20260504182516 20 0.0 3.2 0.00 0.00 0.00 22 1009.7
20260504181516 20 135 1.6 9.7 0.00 0.00 0.00 21 1010.0
20260504180516 21 0.0 4.8 0.00 0.00 0.00 22 1010.2
20260504175516 21 0.0 3.2 0.00 0.00 0.00 23 1010.7
20260504174516 22 0 1.6 6.4 0.00 0.00 0.00 22 1010.8
20260504173518 22 0.0 3.2 0.00 0.00 0.00 19 1011.0
20260504172516 21 270 1.6 6.4 0.00 0.00 0.00 20 1011.2
20260504171516 21 0.0 4.8 0.00 0.00 0.00 22 1010.9
20260504170517 20 135 1.6 9.7 0.00 0.00 0.00 22 1011.4
20260504150516 16 0.0 4.8 0.00 0.00 0.00 27 1011.3
20260504140516 12 0.0 1.6 0.00 0.00 0.00 37 1010.3
20260504130515 10 0.0 0.0 0.00 0.00 0.00 37 1010.4
20260504110516 7 0.0 0.0 0.00 0.00 0.00 41 1009.8
20260504100518 6 0.0 0.0 0.00 0.00 0.00 48 1010.1
20260504081518 8 0.0 0.0 0.00 0.00 0.00 41 1012.0
20260504080538 9 0.0 0.0 0.00 0.00 0.00 39 1012.4
20260504050517 14 0.0 1.6 0.00 0.00 0.00 30 1013.5
20260504045517 15 0.0 0.0 0.00 0.00 0.00 28 1013.6
20260504044517 15 0.0 4.8 0.00 0.00 0.00 29 1013.5
20260504043619 15 0.0 1.6 0.00 0.00 0.00 30 1013.6
20260504042517 14 0.0 1.6 0.00 0.00 0.00 30 1013.7
20260504041537 13 0.0 1.6 0.00 0.00 0.00 31 1013.3
20260504040538 14 0.0 0.0 0.00 0.00 0.00 31 1013.1